This is the latest recevied weather packets stored in our database for station/object WA9NNN-10. If no packets are shown the sender has not sent any weather packets the latest 10 day(s).
| Time | Temp. | Humidity | Pressure | Rain* | Wind** | Luminosity | Snow |
|---|---|---|---|---|---|---|---|
| 1788115411 | 28.33° C | 63% | 1015 hPa | 0 mm | - | - | - |
| 1788115112 | 28.33° C | 62% | 1014.8 hPa | 0 mm | - | - | - |
| 1788114810 | 28.89° C | 62% | 1014.7 hPa | 0 mm | - | - | - |
| 1788114512 | 28.89° C | 62% | 1014.6 hPa | 0 mm | - | - | - |
| 1788114210 | 28.89° C | 63% | 1014.5 hPa | 0 mm | - | - | - |
| 1788113911 | 28.89° C | 62% | 1014.7 hPa | 0 mm | - | - | - |
| 1788113610 | 28.89° C | 62% | 1014.8 hPa | 0 mm | - | - | - |
| 1788113311 | 28.89° C | 62% | 1014.7 hPa | 0 mm | - | - | - |
| 1788113010 | 28.89° C | 61% | 1014.7 hPa | 0 mm | - | - | - |
| 1788112711 | 29.44° C | 60% | 1014.8 hPa | 0 mm | - | - | - |
| 1788112411 | 30° C | 59% | 1014.8 hPa | 0 mm | - | - | - |
| 1788112111 | 30° C | 60% | 1014.9 hPa | 0 mm | - | - | - |
| 1788111810 | 29.44° C | 62% | 1015 hPa | 0 mm | - | - | - |
| 1788111512 | 28.89° C | 60% | 1015.1 hPa | 0 mm | - | - | - |
| 1788111212 | 29.44° C | 60% | 1015 hPa | 0 mm | - | - | - |
| 1788110911 | 29.44° C | 60% | 1015.1 hPa | 0 mm | - | - | - |
| 1788110610 | 29.44° C | 60% | 1015.1 hPa | 0 mm | - | - | - |
| 1788110312 | 29.44° C | 62% | 1015.1 hPa | 0 mm | - | - | - |
| 1788110011 | 28.89° C | 62% | 1015 hPa | 0 mm | - | - | - |
| 1788109711 | 28.33° C | 63% | 1015.1 hPa | 0 mm | - | - | - |
| 1788109412 | 28.33° C | 63% | 1015.2 hPa | 0 mm | - | - | - |
| 1788109110 | 28.33° C | 64% | 1015.1 hPa | 0 mm | - | - | - |
| 1788108810 | 28.33° C | 64% | 1015.1 hPa | 0 mm | - | - | - |
| 1788108510 | 27.78° C | 66% | 1015.1 hPa | 0 mm | - | - | - |
| 1788107911 | 27.22° C | 68% | 1015.2 hPa | 0 mm | - | - | - |
* Rain latest hour (hover to see other rain measurements)
** Current wind speed in m/s (hover to see current wind gust speed)